METEOR 2-11 DEB, 40707

Orbit data source: Space-Track

METEOR 2-11 DEB, 40707 is space debris in LEO originally from a launch on Thu, 05 Jul 1984 UTC launched from the Plesetsk Missile And Space Complex (PKMTR). Debris objects in space refer to the collection of defunct objects orbiting the Earth. Examples of debris include non-operational satellites, rocket bodies, and fragments generated from explosions, collisions, or faulty payload assembly.

Loading next visibility...
Identifier
40707, 1984-072J
Orbit
LEO
Country
Flag of CISCIS
Related business
Manufacturer
Unknown
Mission
Spacecraft
Bus & Motor
Unknown
Mass
Unknown
Launch date (UTC)
1984-07-05 (42 years ago)
Launch vehicle
Unknown
Launch site
Plesetsk Missile And Space Complex (PKMTR)
Object type
Payload
Rocket body
Debris
Shape & HBR
Unknown shape, 0.1 m
Radar Cross Section
Medium (>0.1 m² and <1 m²)

Expand to show TLE details & history
Last TLE update: 2 days ago

TLE from 2 days ago
0 METEOR 2-11 DEB
1 40707U 84072J   26207.64534078  .00001756  00000-0  12317-2 0  9998
2 40707  82.5213 334.0170 0008648 247.1397 112.8858 13.97786899109693
Epoch: 2026-07-26T15:29Z
TLE epoch observation values (Epoch: 2026-07-26T15:29:17.443Z)
Latitude
-0.00001°
Longitude
157.35402°
Altitude
906.842 km
Speed
7.397 km/s
True Right ascension
22h 16m 04s
True Declination
0° 00' 00"
Sunlit
Object was in full shadow at epoch
Visualization orbit readout
Latitude
Unknown
Longitude
Unknown
Altitude
Unknown
Speed
Unknown
Apparent Right ascension
Unknown
Apparent Declination
Unknown
Sunlit
N/A
Visualization observer readout
Local Sidereal Time
05:28:17
Azimuth
Unknown
Elevation
Unknown
Doppler factor
Unknown
Orbital elements
Apogee altitude
904.896 km
Perigee altitude
892.31 km
Semi-major axis
7,276.74 km
Eccentricity
0.00086
Inclination
82.5213°
RAAN
334.017°
Arg. of periapsis
247.1397°
True anomaly
112.97706°
Mean anomaly
112.8858°
Eccentric anomaly
112.93143°
Mean motion
3.49654 °/min
Orbital period
102.96 mins
BSTAR
0.0012317
Loading maneuver chart data...
Computing Atmospheric mass density...
Loading historical data...
Loading historical data...
Loading historical data...
Loading historical data...
Loading historical data...
Loading historical data...
Loading historical data...

Documentation

Showing up to 5 results
|